Time,TemperatureF,DewpointF,PressureIn,WindDirection,WindDirectionDegrees,WindSpeedMPH,WindSpeedGustMPH,Humidity,HourlyPrecipIn,Conditions,Clouds,dailyrainin,SoftwareType,DateUTC
2013-01-12 00:01:00,69.6,65.6,30.17,SSE,168,0.0,0.0,87,0.00,,,0.00,Wunderground v.1.13,2013-01-12 05:01:00,
2013-01-12 00:03:00,69.6,65.6,30.17,SSE,168,0.0,0.0,87,0.00,,,0.00,Wunderground v.1.13,2013-01-12 05:03:00,
2013-01-12 00:07:00,69.5,65.5,30.17,South,169,0.0,0.0,87,0.00,,,0.00,Wunderground v.1.13,2013-01-12 05:07:00,
2013-01-12 00:12:00,69.4,65.4,30.17,South,169,1.0,1.0,87,0.00,,,0.00,Wunderground v.1.13,2013-01-12 05:12:00,
2013-01-12 00:17:00,69.2,65.2,30.17,South,169,0.0,0.0,87,0.00,,,0.00,Wunderground v.1.13,2013-01-12 05:17:00,
2013-01-12 00:23:00,69.1,65.1,30.17,South,169,0.0,0.0,87,0.00,,,0.00,Wunderground v.1.13,2013-01-12 05:23:00,
2013-01-12 00:29:00,68.9,64.9,30.17,South,169,1.0,1.0,87,0.00,,,0.00,Wunderground v.1.13,2013-01-12 05:29:00,
2013-01-12 00:34:00,68.8,64.8,30.16,South,169,0.0,0.0,87,0.00,,,0.00,Wunderground v.1.13,2013-01-12 05:34:00,
2013-01-12 00:40:00,68.8,64.8,30.16,South,169,0.0,0.0,87,0.00,,,0.00,Wunderground v.1.13,2013-01-12 05:40:00,
2013-01-12 00:45:00,68.7,64.7,30.16,South,169,0.0,0.0,87,0.00,,,0.00,Wunderground v.1.13,2013-01-12 05:45:00,
2013-01-12 00:50:00,68.6,64.6,30.16,South,169,0.0,0.0,87,0.00,,,0.00,Wunderground v.1.13,2013-01-12 05:50:00,
2013-01-12 00:56:00,68.5,64.5,30.16,South,169,0.0,0.0,87,0.00,,,0.00,Wunderground v.1.13,2013-01-12 05:56:00,
2013-01-12 01:01:00,68.5,64.5,30.16,SSE,168,0.0,0.0,87,0.00,,,0.00,Wunderground v.1.13,2013-01-12 06:01:00,
2013-01-12 01:06:00,68.4,64.4,30.16,SSE,168,0.0,0.0,87,0.00,,,0.00,Wunderground v.1.13,2013-01-12 06:06:00,
2013-01-12 01:12:00,68.3,64.6,30.15,SSE,168,0.0,0.0,88,0.00,,,0.00,Wunderground v.1.13,2013-01-12 06:12:00,
2013-01-12 01:17:00,68.2,64.5,30.16,South,169,0.0,0.0,88,0.00,,,0.00,Wunderground v.1.13,2013-01-12 06:17:00,
2013-01-12 01:23:00,68.1,64.4,30.15,South,169,0.0,0.0,88,0.00,,,0.00,Wunderground v.1.13,2013-01-12 06:23:00,
2013-01-12 01:28:00,68.1,64.4,30.15,SSE,168,0.0,0.0,88,0.00,,,0.00,Wunderground v.1.13,2013-01-12 06:28:00,
2013-01-12 01:33:00,68.0,64.3,30.15,South,169,0.0,0.0,88,0.00,,,0.00,Wunderground v.1.13,2013-01-12 06:33:00,
2013-01-12 01:39:00,67.9,64.2,30.15,SSE,168,0.0,0.0,88,0.00,,,0.00,Wunderground v.1.13,2013-01-12 06:39:00,
2013-01-12 01:45:00,67.8,64.1,30.15,SSE,168,0.0,0.0,88,0.00,,,0.00,Wunderground v.1.13,2013-01-12 06:45:00,
2013-01-12 01:50:00,67.7,64.0,30.15,South,169,0.0,0.0,88,0.00,,,0.00,Wunderground v.1.13,2013-01-12 06:50:00,
2013-01-12 01:56:00,67.6,64.2,30.15,South,169,0.0,0.0,89,0.00,,,0.00,Wunderground v.1.13,2013-01-12 06:56:00,
2013-01-12 02:01:00,67.6,64.2,30.15,SSE,168,0.0,0.0,89,0.00,,,0.00,Wunderground v.1.13,2013-01-12 07:01:00,
2013-01-12 02:06:00,67.5,64.1,30.15,South,169,0.0,0.0,89,0.00,,,0.00,Wunderground v.1.13,2013-01-12 07:06:00,
2013-01-12 02:11:00,67.4,64.0,30.15,South,169,0.0,0.0,89,0.00,,,0.00,Wunderground v.1.13,2013-01-12 07:11:00,
2013-01-12 02:16:00,67.3,63.9,30.15,South,169,0.0,0.0,89,0.00,,,0.00,Wunderground v.1.13,2013-01-12 07:16:00,
2013-01-12 02:21:00,67.2,63.8,30.15,SSE,168,0.0,0.0,89,0.00,,,0.00,Wunderground v.1.13,2013-01-12 07:21:00,
2013-01-12 02:26:00,67.1,63.7,30.15,SSE,168,0.0,0.0,89,0.00,,,0.00,Wunderground v.1.13,2013-01-12 07:26:00,
2013-01-12 02:31:00,67.0,64.0,30.14,SSE,168,0.0,0.0,90,0.00,,,0.00,Wunderground v.1.13,2013-01-12 07:31:00,
2013-01-12 02:37:00,66.9,63.9,30.14,SSE,168,0.0,0.0,90,0.00,,,0.00,Wunderground v.1.13,2013-01-12 07:37:00,
2013-01-12 02:42:00,66.8,63.8,30.14,South,169,0.0,0.0,90,0.00,,,0.00,Wunderground v.1.13,2013-01-12 07:42:00,
2013-01-12 02:47:00,66.7,63.7,30.14,SSE,168,0.0,0.0,90,0.00,,,0.00,Wunderground v.1.13,2013-01-12 07:47:00,
2013-01-12 02:52:00,66.7,63.7,30.14,South,169,0.0,0.0,90,0.00,,,0.00,Wunderground v.1.13,2013-01-12 07:52:00,
2013-01-12 02:57:00,66.6,63.6,30.14,South,169,0.0,0.0,90,0.00,,,0.00,Wunderground v.1.13,2013-01-12 07:57:00,
2013-01-12 03:02:00,66.6,63.6,30.14,South,169,0.0,0.0,90,0.00,,,0.00,Wunderground v.1.13,2013-01-12 08:02:00,
2013-01-12 03:07:00,66.6,63.9,30.14,South,169,0.0,0.0,91,0.00,,,0.00,Wunderground v.1.13,2013-01-12 08:07:00,
2013-01-12 03:12:00,66.5,63.8,30.14,SSE,168,0.0,0.0,91,0.00,,,0.00,Wunderground v.1.13,2013-01-12 08:12:00,
2013-01-12 03:17:00,66.4,63.7,30.14,SSE,168,0.0,0.0,91,0.00,,,0.00,Wunderground v.1.13,2013-01-12 08:17:00,
2013-01-12 03:23:00,66.3,63.6,30.14,South,169,0.0,0.0,91,0.00,,,0.00,Wunderground v.1.13,2013-01-12 08:23:00,
2013-01-12 03:28:00,66.2,63.5,30.14,South,169,0.0,0.0,91,0.00,,,0.00,Wunderground v.1.13,2013-01-12 08:28:00,
2013-01-12 03:33:00,66.2,63.5,30.14,South,169,0.0,0.0,91,0.00,,,0.00,Wunderground v.1.13,2013-01-12 08:33:00,
2013-01-12 03:38:00,66.1,63.4,30.14,South,169,0.0,0.0,91,0.00,,,0.00,Wunderground v.1.13,2013-01-12 08:38:00,
2013-01-12 03:43:00,66.1,63.4,30.14,South,169,0.0,0.0,91,0.00,,,0.00,Wunderground v.1.13,2013-01-12 08:43:00,
2013-01-12 03:48:00,65.9,63.2,30.13,South,169,0.0,0.0,91,0.00,,,0.00,Wunderground v.1.13,2013-01-12 08:48:00,
2013-01-12 03:53:00,65.8,63.1,30.13,South,169,0.0,0.0,91,0.00,,,0.00,Wunderground v.1.13,2013-01-12 08:53:00,
2013-01-12 03:58:00,65.8,63.1,30.13,SSE,168,0.0,0.0,91,0.00,,,0.00,Wunderground v.1.13,2013-01-12 08:58:00,
2013-01-12 04:04:00,65.8,63.4,30.13,South,169,0.0,0.0,92,0.00,,,0.00,Wunderground v.1.13,2013-01-12 09:04:00,
2013-01-12 04:09:00,65.7,63.3,30.13,SSE,168,0.0,0.0,92,0.00,,,0.00,Wunderground v.1.13,2013-01-12 09:09:00,
2013-01-12 04:14:00,65.6,63.2,30.13,SSE,168,0.0,0.0,92,0.00,,,0.00,Wunderground v.1.13,2013-01-12 09:14:00,
2013-01-12 04:19:00,65.7,63.3,30.13,South,169,0.0,1.0,92,0.00,,,0.00,Wunderground v.1.13,2013-01-12 09:19:00,
2013-01-12 04:24:00,65.8,63.4,30.13,SSE,168,0.0,0.0,92,0.00,,,0.00,Wunderground v.1.13,2013-01-12 09:24:00,
2013-01-12 04:29:00,66.0,63.6,30.13,SSE,168,0.0,0.0,92,0.00,,,0.00,Wunderground v.1.13,2013-01-12 09:29:00,
2013-01-12 04:34:00,66.1,63.7,30.13,South,169,0.0,0.0,92,0.00,,,0.00,Wunderground v.1.13,2013-01-12 09:34:00,
2013-01-12 04:39:00,66.1,63.7,30.13,SSE,168,0.0,0.0,92,0.00,,,0.00,Wunderground v.1.13,2013-01-12 09:39:00,
2013-01-12 04:44:00,66.1,63.7,30.13,South,169,0.0,1.0,92,0.00,,,0.00,Wunderground v.1.13,2013-01-12 09:44:00,
2013-01-12 04:50:00,66.2,63.8,30.13,South,169,0.0,0.0,92,0.00,,,0.00,Wunderground v.1.13,2013-01-12 09:50:00,
2013-01-12 04:55:00,66.2,63.8,30.13,South,169,0.0,0.0,92,0.00,,,0.00,Wunderground v.1.13,2013-01-12 09:55:00,
2013-01-12 05:00:00,66.3,63.9,30.13,South,169,0.0,0.0,92,0.00,,,0.00,Wunderground v.1.13,2013-01-12 10:00:00,
2013-01-12 05:05:00,66.2,63.8,30.13,South,169,0.0,0.0,92,0.00,,,0.00,Wunderground v.1.13,2013-01-12 10:05:00,
2013-01-12 05:11:00,66.1,63.7,30.12,SSE,168,0.0,0.0,92,0.00,,,0.00,Wunderground v.1.13,2013-01-12 10:11:00,
2013-01-12 05:16:00,66.1,63.7,30.12,South,169,0.0,0.0,92,0.00,,,0.00,Wunderground v.1.13,2013-01-12 10:16:00,
2013-01-12 05:21:00,66.0,63.9,30.12,South,169,0.0,0.0,93,0.00,,,0.00,Wunderground v.1.13,2013-01-12 10:21:00,
2013-01-12 05:26:00,66.1,64.0,30.12,SSE,168,0.0,0.0,93,0.00,,,0.00,Wunderground v.1.13,2013-01-12 10:26:00,
2013-01-12 05:31:00,66.1,64.0,30.12,SSE,168,0.0,0.0,93,0.00,,,0.00,Wunderground v.1.13,2013-01-12 10:31:00,
2013-01-12 05:36:00,66.0,63.9,30.12,South,169,0.0,0.0,93,0.00,,,0.00,Wunderground v.1.13,2013-01-12 10:36:00,
2013-01-12 05:41:00,66.0,63.9,30.12,South,169,0.0,0.0,93,0.00,,,0.00,Wunderground v.1.13,2013-01-12 10:41:00,
2013-01-12 05:47:00,65.9,63.8,30.12,South,169,0.0,0.0,93,0.00,,,0.00,Wunderground v.1.13,2013-01-12 10:47:00,
2013-01-12 05:52:00,65.9,63.8,30.12,South,169,0.0,0.0,93,0.00,,,0.00,Wunderground v.1.13,2013-01-12 10:52:00,
2013-01-12 05:57:00,65.9,63.8,30.12,SSE,168,0.0,0.0,93,0.00,,,0.00,Wunderground v.1.13,2013-01-12 10:57:00,
2013-01-12 06:02:00,65.8,63.7,30.13,South,169,0.0,0.0,93,0.00,,,0.00,Wunderground v.1.13,2013-01-12 11:02:00,
2013-01-12 06:07:00,65.9,63.8,30.13,South,169,0.0,0.0,93,0.00,,,0.00,Wunderground v.1.13,2013-01-12 11:07:00,
2013-01-12 06:12:00,65.9,63.8,30.13,South,169,0.0,0.0,93,0.00,,,0.00,Wunderground v.1.13,2013-01-12 11:12:00,
2013-01-12 06:18:00,65.8,63.7,30.13,South,169,0.0,0.0,93,0.00,,,0.00,Wunderground v.1.13,2013-01-12 11:18:00,
2013-01-12 06:23:00,65.8,63.7,30.13,SSE,168,0.0,0.0,93,0.00,,,0.00,Wunderground v.1.13,2013-01-12 11:23:00,
2013-01-12 06:28:00,65.8,63.7,30.13,South,169,0.0,0.0,93,0.00,,,0.00,Wunderground v.1.13,2013-01-12 11:28:00,
2013-01-12 06:33:00,65.7,63.6,30.13,SSE,168,0.0,0.0,93,0.00,,,0.00,Wunderground v.1.13,2013-01-12 11:33:00,
2013-01-12 06:38:00,65.8,63.7,30.14,South,169,0.0,0.0,93,0.00,,,0.00,Wunderground v.1.13,2013-01-12 11:38:00,
2013-01-12 06:44:00,65.7,63.6,30.14,South,169,0.0,0.0,93,0.00,,,0.00,Wunderground v.1.13,2013-01-12 11:44:00,
2013-01-12 06:49:00,65.6,63.5,30.14,South,169,0.0,0.0,93,0.00,,,0.00,Wunderground v.1.13,2013-01-12 11:49:00,
2013-01-12 06:54:00,65.6,63.5,30.14,South,169,0.0,0.0,93,0.00,,,0.00,Wunderground v.1.13,2013-01-12 11:54:00,
2013-01-12 07:00:00,65.5,63.4,30.14,South,169,0.0,0.0,93,0.00,,,0.00,Wunderground v.1.13,2013-01-12 12:00:00,
2013-01-12 07:05:00,65.5,63.4,30.14,SSE,168,0.0,0.0,93,0.00,,,0.00,Wunderground v.1.13,2013-01-12 12:05:00,
2013-01-12 07:10:00,65.4,63.3,30.14,South,169,0.0,0.0,93,0.00,,,0.00,Wunderground v.1.13,2013-01-12 12:10:00,
2013-01-12 07:15:00,65.4,63.3,30.15,SSE,168,0.0,0.0,93,0.00,,,0.00,Wunderground v.1.13,2013-01-12 12:15:00,
2013-01-12 07:20:00,65.3,63.2,30.15,SSE,168,0.0,0.0,93,0.00,,,0.00,Wunderground v.1.13,2013-01-12 12:20:00,
2013-01-12 07:25:00,65.4,63.3,30.15,South,169,0.0,0.0,93,0.00,,,0.00,Wunderground v.1.13,2013-01-12 12:25:00,
2013-01-12 07:30:00,65.4,63.3,30.15,SSE,168,0.0,0.0,93,0.00,,,0.00,Wunderground v.1.13,2013-01-12 12:30:00,
2013-01-12 07:35:00,65.4,63.3,30.15,SSE,168,0.0,0.0,93,0.00,,,0.00,Wunderground v.1.13,2013-01-12 12:35:00,
2013-01-12 07:40:00,65.4,63.3,30.15,SSE,168,0.0,0.0,93,0.00,,,0.00,Wunderground v.1.13,2013-01-12 12:40:00,
2013-01-12 07:46:00,65.5,63.4,30.15,South,169,0.0,0.0,93,0.00,,,0.00,Wunderground v.1.13,2013-01-12 12:46:00,
2013-01-12 07:51:00,65.6,63.5,30.15,South,169,0.0,0.0,93,0.00,,,0.00,Wunderground v.1.13,2013-01-12 12:51:00,
2013-01-12 07:56:00,65.8,63.7,30.15,South,169,0.0,0.0,93,0.00,,,0.00,Wunderground v.1.13,2013-01-12 12:56:00,
2013-01-12 08:01:00,65.9,63.8,30.15,SSE,168,0.0,0.0,93,0.00,,,0.00,Wunderground v.1.13,2013-01-12 13:01:00,
2013-01-12 08:06:00,66.0,63.9,30.15,South,169,0.0,0.0,93,0.00,,,0.00,Wunderground v.1.13,2013-01-12 13:06:00,
2013-01-12 08:11:00,66.2,64.1,30.16,South,169,0.0,0.0,93,0.00,,,0.00,Wunderground v.1.13,2013-01-12 13:11:00,
2013-01-12 08:16:00,66.5,64.4,30.16,SSE,168,0.0,0.0,93,0.00,,,0.00,Wunderground v.1.13,2013-01-12 13:16:00,
2013-01-12 08:22:00,66.7,64.6,30.16,SSE,168,0.0,0.0,93,0.00,,,0.00,Wunderground v.1.13,2013-01-12 13:22:00,
2013-01-12 08:27:00,66.9,64.8,30.16,SSE,168,0.0,0.0,93,0.00,,,0.00,Wunderground v.1.13,2013-01-12 13:27:00,
2013-01-12 08:32:00,67.1,65.0,30.16,South,169,0.0,0.0,93,0.00,,,0.00,Wunderground v.1.13,2013-01-12 13:32:00,
2013-01-12 08:37:00,67.3,65.2,30.16,SSE,156,0.0,2.0,93,0.00,,,0.00,Wunderground v.1.13,2013-01-12 13:37:00,
2013-01-12 08:42:00,67.5,65.4,30.16,SSE,156,0.0,0.0,93,0.00,,,0.00,Wunderground v.1.13,2013-01-12 13:42:00,
2013-01-12 08:47:00,67.7,65.6,30.16,SSE,156,0.0,2.0,93,0.00,,,0.00,Wunderground v.1.13,2013-01-12 13:47:00,
2013-01-12 08:52:00,67.9,65.5,30.16,East,80,0.0,2.0,92,0.00,,,0.00,Wunderground v.1.13,2013-01-12 13:52:00,
2013-01-12 08:57:00,68.0,65.3,30.16,East,88,2.0,3.0,91,0.00,,,0.00,Wunderground v.1.13,2013-01-12 13:57:00,
2013-01-12 09:02:00,68.4,65.7,30.16,East,83,0.0,1.0,91,0.00,,,0.00,Wunderground v.1.13,2013-01-12 14:02:00,
2013-01-12 09:08:00,68.5,65.4,30.16,East,92,0.0,3.0,90,0.00,,,0.00,Wunderground v.1.13,2013-01-12 14:08:00,
2013-01-12 09:13:00,68.9,65.5,30.16,East,92,2.0,2.0,89,0.00,,,0.00,Wunderground v.1.13,2013-01-12 14:13:00,
2013-01-12 09:18:00,69.1,65.7,30.16,East,92,0.0,1.0,89,0.00,,,0.00,Wunderground v.1.13,2013-01-12 14:18:00,
2013-01-12 09:23:00,69.4,65.7,30.16,East,90,0.0,0.0,88,0.00,,,0.00,Wunderground v.1.13,2013-01-12 14:23:00,
2013-01-12 09:28:00,69.5,65.5,30.17,East,90,0.0,3.0,87,0.00,,,0.00,Wunderground v.1.13,2013-01-12 14:28:00,
2013-01-12 09:33:00,69.8,65.4,30.17,East,90,0.0,2.0,86,0.00,,,0.00,Wunderground v.1.13,2013-01-12 14:33:00,
2013-01-12 09:38:00,70.1,65.7,30.17,East,90,0.0,1.0,86,0.00,,,0.00,Wunderground v.1.13,2013-01-12 14:38:00,
2013-01-12 09:43:00,70.4,65.7,30.17,East,90,3.0,3.0,85,0.00,,,0.00,Wunderground v.1.13,2013-01-12 14:43:00,
2013-01-12 09:48:00,70.8,66.1,30.17,East,90,0.0,1.0,85,0.00,,,0.00,Wunderground v.1.13,2013-01-12 14:48:00,
2013-01-12 09:53:00,71.2,66.1,30.17,East,90,0.0,1.0,84,0.00,,,0.00,Wunderground v.1.13,2013-01-12 14:53:00,
2013-01-12 09:58:00,71.5,66.1,30.17,SE,129,0.0,5.0,83,0.00,,,0.00,Wunderground v.1.13,2013-01-12 14:58:00,
2013-01-12 10:03:00,72.1,66.3,30.17,ESE,115,0.0,3.0,82,0.00,,,0.00,Wunderground v.1.13,2013-01-12 15:03:00,
2013-01-12 10:09:00,72.7,66.9,30.17,SSE,150,0.0,3.0,82,0.00,,,0.00,Wunderground v.1.13,2013-01-12 15:09:00,
2013-01-12 10:14:00,73.0,66.5,30.16,SSE,168,0.0,5.0,80,0.00,,,0.00,Wunderground v.1.13,2013-01-12 15:14:00,
2013-01-12 10:19:00,73.4,66.9,30.16,SSE,156,1.0,4.0,80,0.00,,,0.00,Wunderground v.1.13,2013-01-12 15:19:00,
2013-01-12 10:24:00,74.0,66.7,30.16,ESE,122,2.0,3.0,78,0.00,,,0.00,Wunderground v.1.13,2013-01-12 15:24:00,
2013-01-12 10:29:00,74.4,66.7,30.16,SE,137,2.0,4.0,77,0.00,,,0.00,Wunderground v.1.13,2013-01-12 15:29:00,
2013-01-12 10:34:00,74.7,67.0,30.16,SE,140,0.0,6.0,77,0.00,,,0.00,Wunderground v.1.13,2013-01-12 15:34:00,
2013-01-12 10:39:00,74.9,66.8,30.16,South,187,3.0,10.0,76,0.00,,,0.00,Wunderground v.1.13,2013-01-12 15:39:00,
2013-01-12 10:44:00,75.1,67.4,30.15,SSE,149,3.0,10.0,77,0.00,,,0.00,Wunderground v.1.13,2013-01-12 15:44:00,
2013-01-12 10:49:00,75.3,67.2,30.15,SE,125,3.0,10.0,76,0.00,,,0.00,Wunderground v.1.13,2013-01-12 15:49:00,
2013-01-12 10:54:00,75.5,67.0,30.15,South,170,5.0,9.0,75,0.00,,,0.00,Wunderground v.1.13,2013-01-12 15:54:00,
2013-01-12 10:59:00,76.1,68.0,30.15,SE,130,1.0,5.0,76,0.00,,,0.00,Wunderground v.1.13,2013-01-12 15:59:00,
2013-01-12 11:04:00,76.9,68.4,30.15,SSE,165,1.0,5.0,75,0.00,,,0.00,Wunderground v.1.13,2013-01-12 16:04:00,
2013-01-12 11:09:00,77.5,68.6,30.14,East,94,3.0,3.0,74,0.00,,,0.00,Wunderground v.1.13,2013-01-12 16:09:00,
2013-01-12 11:15:00,78.2,68.8,30.14,NE,55,2.0,2.0,73,0.00,,,0.00,Wunderground v.1.13,2013-01-12 16:15:00,
2013-01-12 11:20:00,78.4,69.0,30.14,ENE,60,0.0,1.0,73,0.00,,,0.00,Wunderground v.1.13,2013-01-12 16:20:00,
2013-01-12 11:25:00,78.8,68.6,30.14,ENE,74,1.0,1.0,71,0.00,,,0.00,Wunderground v.1.13,2013-01-12 16:25:00,
2013-01-12 11:30:00,79.1,68.9,30.13,East,88,2.0,3.0,71,0.00,,,0.00,Wunderground v.1.13,2013-01-12 16:30:00,
2013-01-12 11:35:00,79.4,69.2,30.13,ENE,76,3.0,3.0,71,0.00,,,0.00,Wunderground v.1.13,2013-01-12 16:35:00,
2013-01-12 11:40:00,79.8,69.1,30.12,East,99,2.0,3.0,70,0.00,,,0.00,Wunderground v.1.13,2013-01-12 16:40:00,
2013-01-12 11:45:00,79.9,69.2,30.12,East,91,4.0,4.0,70,0.00,,,0.00,Wunderground v.1.13,2013-01-12 16:45:00,
2013-01-12 11:50:00,80.2,69.1,30.12,ENE,64,0.0,2.0,69,0.00,,,0.00,Wunderground v.1.13,2013-01-12 16:50:00,
2013-01-12 11:56:00,81.3,69.7,30.12,ENE,67,3.0,3.0,68,0.00,,,0.00,Wunderground v.1.13,2013-01-12 16:56:00,
2013-01-12 12:01:00,81.7,69.2,30.12,SSE,152,0.0,2.0,66,0.00,,,0.00,Wunderground v.1.13,2013-01-12 17:01:00,
2013-01-12 12:06:00,82.1,69.6,30.11,SSE,151,2.0,4.0,66,0.00,,,0.00,Wunderground v.1.13,2013-01-12 17:06:00,
2013-01-12 12:11:00,81.8,68.9,30.11,SE,146,0.0,2.0,65,0.00,,,0.00,Wunderground v.1.13,2013-01-12 17:11:00,
2013-01-12 12:16:00,81.9,69.4,30.11,SSE,149,3.0,3.0,66,0.00,,,0.00,Wunderground v.1.13,2013-01-12 17:16:00,
2013-01-12 12:21:00,81.8,68.4,30.11,East,81,5.0,5.0,64,0.00,,,0.00,Wunderground v.1.13,2013-01-12 17:21:00,
2013-01-12 12:26:00,81.9,69.0,30.10,East,90,0.0,4.0,65,0.00,,,0.00,Wunderground v.1.13,2013-01-12 17:26:00,
2013-01-12 12:31:00,81.7,68.3,30.10,East,94,0.0,2.0,64,0.00,,,0.00,Wunderground v.1.13,2013-01-12 17:31:00,
2013-01-12 12:37:00,81.7,67.9,30.10,SSE,166,2.0,4.0,63,0.00,,,0.00,Wunderground v.1.13,2013-01-12 17:37:00,
2013-01-12 12:42:00,81.5,67.7,30.10,East,83,3.0,7.0,63,0.00,,,0.00,Wunderground v.1.13,2013-01-12 17:42:00,
2013-01-12 12:47:00,81.4,68.5,30.10,East,89,4.0,6.0,65,0.00,,,0.00,Wunderground v.1.13,2013-01-12 17:47:00,
2013-01-12 12:52:00,81.8,68.4,30.09,SE,132,1.0,3.0,64,0.00,,,0.00,Wunderground v.1.13,2013-01-12 17:52:00,
2013-01-12 12:57:00,82.7,68.4,30.09,ESE,123,0.0,2.0,62,0.00,,,0.00,Wunderground v.1.13,2013-01-12 17:57:00,
2013-01-12 13:02:00,83.2,68.3,30.09,SE,124,0.0,1.0,61,0.00,,,0.00,Wunderground v.1.13,2013-01-12 18:02:00,
2013-01-12 13:08:00,82.8,68.0,30.09,East,80,0.0,1.0,61,0.00,,,0.00,Wunderground v.1.13,2013-01-12 18:08:00,
2013-01-12 13:13:00,82.7,67.9,30.09,SE,134,0.0,7.0,61,0.00,,,0.00,Wunderground v.1.13,2013-01-12 18:13:00,
2013-01-12 13:18:00,82.8,67.5,30.08,SE,134,1.0,4.0,60,0.00,,,0.00,Wunderground v.1.13,2013-01-12 18:18:00,
2013-01-12 13:23:00,83.1,67.8,30.08,ESE,110,0.0,2.0,60,0.00,,,0.00,Wunderground v.1.13,2013-01-12 18:23:00,
2013-01-12 13:28:00,83.3,68.0,30.08,SE,132,7.0,7.0,60,0.00,,,0.00,Wunderground v.1.13,2013-01-12 18:28:00,
2013-01-12 13:33:00,83.2,67.9,30.08,SE,134,1.0,4.0,60,0.00,,,0.00,Wunderground v.1.13,2013-01-12 18:33:00,
2013-01-12 13:38:00,83.1,67.8,30.08,South,180,3.0,5.0,60,0.00,,,0.00,Wunderground v.1.13,2013-01-12 18:38:00,
2013-01-12 13:43:00,83.1,67.8,30.08,SSE,164,0.0,6.0,60,0.00,,,0.00,Wunderground v.1.13,2013-01-12 18:43:00,
2013-01-12 13:48:00,83.2,67.9,30.08,East,97,0.0,5.0,60,0.00,,,0.00,Wunderground v.1.13,2013-01-12 18:48:00,
2013-01-12 13:54:00,83.4,68.1,30.08,East,88,0.0,1.0,60,0.00,,,0.00,Wunderground v.1.13,2013-01-12 18:54:00,
2013-01-12 13:59:00,83.6,67.8,30.08,East,90,0.0,3.0,59,0.00,,,0.00,Wunderground v.1.13,2013-01-12 18:59:00,
2013-01-12 14:04:00,83.7,67.4,30.07,SE,134,0.0,5.0,58,0.00,,,0.00,Wunderground v.1.13,2013-01-12 19:04:00,
2013-01-12 14:09:00,83.5,67.7,30.07,East,85,2.0,2.0,59,0.00,,,0.00,Wunderground v.1.13,2013-01-12 19:09:00,
2013-01-12 14:14:00,83.4,67.6,30.07,East,96,1.0,5.0,59,0.00,,,0.00,Wunderground v.1.13,2013-01-12 19:14:00,
2013-01-12 14:19:00,83.4,67.1,30.07,East,99,2.0,5.0,58,0.00,,,0.00,Wunderground v.1.13,2013-01-12 19:19:00,
2013-01-12 14:24:00,83.3,66.5,30.07,ESE,110,0.0,6.0,57,0.00,,,0.00,Wunderground v.1.13,2013-01-12 19:24:00,
2013-01-12 14:29:00,83.1,67.3,30.07,NE,51,1.0,3.0,59,0.00,,,0.00,Wunderground v.1.13,2013-01-12 19:29:00,
2013-01-12 14:34:00,83.3,67.0,30.07,NE,51,0.0,3.0,58,0.00,,,0.00,Wunderground v.1.13,2013-01-12 19:34:00,
2013-01-12 14:39:00,83.4,67.1,30.07,NE,54,0.0,0.0,58,0.00,,,0.00,Wunderground v.1.13,2013-01-12 19:39:00,
2013-01-12 14:44:00,83.6,67.3,30.07,NE,55,2.0,2.0,58,0.00,,,0.00,Wunderground v.1.13,2013-01-12 19:44:00,
2013-01-12 14:49:00,83.6,66.8,30.07,SE,129,3.0,3.0,57,0.00,,,0.00,Wunderground v.1.13,2013-01-12 19:49:00,
2013-01-12 14:55:00,83.8,66.9,30.07,SE,130,0.0,1.0,57,0.00,,,0.00,Wunderground v.1.13,2013-01-12 19:55:00,
2013-01-12 15:00:00,83.8,66.9,30.07,SE,136,2.0,2.0,57,0.00,,,0.00,Wunderground v.1.13,2013-01-12 20:00:00,
2013-01-12 15:05:00,82.9,66.6,30.07,ENE,67,0.0,1.0,58,0.00,,,0.00,Wunderground v.1.13,2013-01-12 20:05:00,
2013-01-12 15:10:00,82.6,66.3,30.07,ENE,69,0.0,0.0,58,0.00,,,0.00,Wunderground v.1.13,2013-01-12 20:10:00,
2013-01-12 15:16:00,82.8,67.0,30.07,ENE,70,0.0,0.0,59,0.00,,,0.00,Wunderground v.1.13,2013-01-12 20:16:00,
2013-01-12 15:21:00,83.7,66.8,30.07,ENE,69,0.0,1.0,57,0.00,,,0.00,Wunderground v.1.13,2013-01-12 20:21:00,
2013-01-12 15:26:00,83.7,66.8,30.07,ENE,71,1.0,1.0,57,0.00,,,0.00,Wunderground v.1.13,2013-01-12 20:26:00,
2013-01-12 15:31:00,83.4,66.6,30.07,ENE,71,0.0,0.0,57,0.00,,,0.00,Wunderground v.1.13,2013-01-12 20:31:00,
2013-01-12 15:36:00,82.9,66.1,30.07,ENE,71,0.0,0.0,57,0.00,,,0.00,Wunderground v.1.13,2013-01-12 20:36:00,
2013-01-12 15:41:00,82.6,66.3,30.07,ENE,71,0.0,0.0,58,0.00,,,0.00,Wunderground v.1.13,2013-01-12 20:41:00,
2013-01-12 15:46:00,82.4,66.1,30.07,ENE,71,0.0,0.0,58,0.00,,,0.00,Wunderground v.1.13,2013-01-12 20:46:00,
2013-01-12 15:51:00,82.3,66.0,30.07,ENE,71,0.0,0.0,58,0.00,,,0.00,Wunderground v.1.13,2013-01-12 20:51:00,
2013-01-12 15:56:00,82.1,66.4,30.07,ENE,71,0.0,0.0,59,0.00,,,0.00,Wunderground v.1.13,2013-01-12 20:56:00,
2013-01-12 16:01:00,82.0,66.3,30.08,ENE,71,0.0,0.0,59,0.00,,,0.00,Wunderground v.1.13,2013-01-12 21:01:00,
2013-01-12 16:06:00,81.4,65.7,30.08,SSE,161,1.0,6.0,59,0.00,,,0.00,Wunderground v.1.13,2013-01-12 21:06:00,
2013-01-12 16:12:00,80.9,66.2,30.08,SSE,161,0.0,2.0,61,0.00,,,0.00,Wunderground v.1.13,2013-01-12 21:12:00,
2013-01-12 16:17:00,80.9,67.6,30.09,SW,232,5.0,5.0,64,0.00,,,0.00,Wunderground v.1.13,2013-01-12 21:17:00,
2013-01-12 16:22:00,80.5,68.5,30.09,West,270,6.0,9.0,67,0.00,,,0.00,Wunderground v.1.13,2013-01-12 21:22:00,
2013-01-12 16:27:00,79.5,68.0,30.09,West,260,2.0,4.0,68,0.00,,,0.00,Wunderground v.1.13,2013-01-12 21:27:00,
2013-01-12 16:32:00,78.7,67.7,30.09,WSW,248,2.0,5.0,69,0.00,,,0.00,Wunderground v.1.13,2013-01-12 21:32:00,
2013-01-12 16:37:00,78.4,67.8,30.09,SW,221,6.0,7.0,70,0.00,,,0.00,Wunderground v.1.13,2013-01-12 21:37:00,
2013-01-12 16:42:00,77.9,67.7,30.09,SW,230,4.0,5.0,71,0.00,,,0.00,Wunderground v.1.13,2013-01-12 21:42:00,
2013-01-12 16:48:00,77.5,67.8,30.09,SW,219,2.0,6.0,72,0.00,,,0.00,Wunderground v.1.13,2013-01-12 21:48:00,
2013-01-12 16:53:00,77.4,67.7,30.09,SW,234,5.0,5.0,72,0.00,,,0.00,Wunderground v.1.13,2013-01-12 21:53:00,
2013-01-12 16:58:00,77.3,67.6,30.09,SW,231,5.0,6.0,72,0.00,,,0.00,Wunderground v.1.13,2013-01-12 21:58:00,
2013-01-12 17:03:00,77.1,67.8,30.09,SW,232,1.0,3.0,73,0.00,,,0.00,Wunderground v.1.13,2013-01-12 22:03:00,
2013-01-12 17:08:00,76.9,67.6,30.09,SW,229,0.0,4.0,73,0.00,,,0.00,Wunderground v.1.13,2013-01-12 22:08:00,
2013-01-12 17:13:00,76.7,67.4,30.09,SW,229,0.0,3.0,73,0.00,,,0.00,Wunderground v.1.13,2013-01-12 22:13:00,
2013-01-12 17:18:00,76.7,67.8,30.09,SW,229,0.0,3.0,74,0.00,,,0.00,Wunderground v.1.13,2013-01-12 22:18:00,
2013-01-12 17:23:00,76.6,67.7,30.09,SW,229,0.0,3.0,74,0.00,,,0.00,Wunderground v.1.13,2013-01-12 22:23:00,
2013-01-12 17:28:00,76.4,67.5,30.09,SW,229,0.0,3.0,74,0.00,,,0.00,Wunderground v.1.13,2013-01-12 22:28:00,
2013-01-12 17:34:00,76.2,67.7,30.09,SW,229,0.0,1.0,75,0.00,,,0.00,Wunderground v.1.13,2013-01-12 22:34:00,
2013-01-12 17:39:00,76.2,67.7,30.09,SW,229,0.0,0.0,75,0.00,,,0.00,Wunderground v.1.13,2013-01-12 22:39:00,
2013-01-12 17:44:00,76.1,67.6,30.09,SW,229,0.0,3.0,75,0.00,,,0.00,Wunderground v.1.13,2013-01-12 22:44:00,
2013-01-12 17:49:00,76.0,67.5,30.09,SW,229,0.0,2.0,75,0.00,,,0.00,Wunderground v.1.13,2013-01-12 22:49:00,
2013-01-12 17:54:00,75.9,67.8,30.09,SW,229,0.0,0.0,76,0.00,,,0.00,Wunderground v.1.13,2013-01-12 22:54:00,
2013-01-12 18:00:00,75.8,67.7,30.09,SW,229,0.0,0.0,76,0.00,,,0.00,Wunderground v.1.13,2013-01-12 23:00:00,
2013-01-12 18:05:00,75.7,67.6,30.09,SW,229,0.0,0.0,76,0.00,,,0.00,Wunderground v.1.13,2013-01-12 23:05:00,
2013-01-12 18:10:00,75.6,67.5,30.09,SW,229,0.0,0.0,76,0.00,,,0.00,Wunderground v.1.13,2013-01-12 23:10:00,
2013-01-12 18:15:00,75.4,67.3,30.09,SW,229,0.0,0.0,76,0.00,,,0.00,Wunderground v.1.13,2013-01-12 23:15:00,
2013-01-12 18:20:00,75.2,67.1,30.09,SW,229,0.0,0.0,76,0.00,,,0.00,Wunderground v.1.13,2013-01-12 23:20:00,
2013-01-12 18:25:00,75.0,66.9,30.10,SW,229,0.0,0.0,76,0.00,,,0.00,Wunderground v.1.13,2013-01-12 23:25:00,
2013-01-12 18:30:00,74.8,67.1,30.09,SW,229,0.0,2.0,77,0.00,,,0.00,Wunderground v.1.13,2013-01-12 23:30:00,
2013-01-12 18:35:00,74.6,66.9,30.09,SW,229,0.0,0.0,77,0.00,,,0.00,Wunderground v.1.13,2013-01-12 23:35:00,
2013-01-12 18:41:00,74.3,66.6,30.10,SW,229,0.0,0.0,77,0.00,,,0.00,Wunderground v.1.13,2013-01-12 23:41:00,
2013-01-12 18:46:00,74.1,66.8,30.10,SW,229,0.0,0.0,78,0.00,,,0.00,Wunderground v.1.13,2013-01-12 23:46:00,
2013-01-12 18:51:00,73.8,66.9,30.10,SW,229,0.0,0.0,79,0.00,,,0.00,Wunderground v.1.13,2013-01-12 23:51:00,
2013-01-12 18:56:00,73.7,66.8,30.10,SW,229,0.0,0.0,79,0.00,,,0.00,Wunderground v.1.13,2013-01-12 23:56:00,
2013-01-12 19:01:00,73.6,67.0,30.09,SW,229,0.0,0.0,80,0.00,,,0.00,Wunderground v.1.13,2013-01-13 00:01:00,
2013-01-12 19:06:00,73.5,66.9,30.09,SW,229,0.0,0.0,80,0.00,,,0.00,Wunderground v.1.13,2013-01-13 00:06:00,
2013-01-12 19:11:00,73.3,66.8,30.09,SW,229,0.0,0.0,80,0.00,,,0.00,Wunderground v.1.13,2013-01-13 00:11:00,
2013-01-12 19:16:00,73.1,66.6,30.10,SW,229,0.0,0.0,80,0.00,,,0.00,Wunderground v.1.13,2013-01-13 00:16:00,
2013-01-12 19:22:00,73.0,66.5,30.09,SW,229,0.0,0.0,80,0.00,,,0.00,Wunderground v.1.13,2013-01-13 00:22:00,
2013-01-12 19:27:00,72.8,66.6,30.09,SW,229,0.0,0.0,81,0.00,,,0.00,Wunderground v.1.13,2013-01-13 00:27:00,
2013-01-12 19:32:00,72.6,66.4,30.09,SW,229,0.0,0.0,81,0.00,,,0.00,Wunderground v.1.13,2013-01-13 00:32:00,
2013-01-12 19:37:00,72.4,66.2,30.09,SW,229,0.0,0.0,81,0.00,,,0.00,Wunderground v.1.13,2013-01-13 00:37:00,
2013-01-12 19:42:00,72.1,65.9,30.09,SW,229,0.0,0.0,81,0.00,,,0.00,Wunderground v.1.13,2013-01-13 00:42:00,
2013-01-12 19:47:00,71.9,66.1,30.09,SW,229,0.0,0.0,82,0.00,,,0.00,Wunderground v.1.13,2013-01-13 00:47:00,
2013-01-12 19:52:00,71.7,65.9,30.09,SW,229,0.0,0.0,82,0.00,,,0.00,Wunderground v.1.13,2013-01-13 00:52:00,
2013-01-12 19:57:00,71.6,66.2,30.09,SW,229,0.0,0.0,83,0.00,,,0.00,Wunderground v.1.13,2013-01-13 00:57:00,
2013-01-12 20:03:00,71.4,66.0,30.09,SW,229,0.0,0.0,83,0.00,,,0.00,Wunderground v.1.13,2013-01-13 01:03:00,
2013-01-12 20:08:00,71.3,65.9,30.09,SW,229,0.0,0.0,83,0.00,,,0.00,Wunderground v.1.13,2013-01-13 01:08:00,
2013-01-12 20:13:00,71.0,65.6,30.09,SW,229,0.0,0.0,83,0.00,,,0.00,Wunderground v.1.13,2013-01-13 01:13:00,
2013-01-12 20:18:00,70.9,65.8,30.08,SW,229,0.0,0.0,84,0.00,,,0.00,Wunderground v.1.13,2013-01-13 01:18:00,
2013-01-12 20:23:00,70.7,65.6,30.08,SW,229,0.0,0.0,84,0.00,,,0.00,Wunderground v.1.13,2013-01-13 01:23:00,
2013-01-12 20:28:00,70.5,65.4,30.08,SW,229,0.0,0.0,84,0.00,,,0.00,Wunderground v.1.13,2013-01-13 01:28:00,
2013-01-12 20:33:00,70.3,65.6,30.08,SW,229,0.0,0.0,85,0.00,,,0.00,Wunderground v.1.13,2013-01-13 01:33:00,
2013-01-12 20:39:00,70.1,65.4,30.08,SW,229,0.0,0.0,85,0.00,,,0.00,Wunderground v.1.13,2013-01-13 01:39:00,
2013-01-12 20:44:00,70.1,65.4,30.08,SW,229,0.0,0.0,85,0.00,,,0.00,Wunderground v.1.13,2013-01-13 01:44:00,
2013-01-12 20:49:00,69.9,65.2,30.08,SW,229,0.0,0.0,85,0.00,,,0.00,Wunderground v.1.13,2013-01-13 01:49:00,
2013-01-12 20:54:00,69.7,65.3,30.08,SW,229,0.0,0.0,86,0.00,,,0.00,Wunderground v.1.13,2013-01-13 01:54:00,
2013-01-12 21:00:00,69.6,65.2,30.08,SW,229,0.0,0.0,86,0.00,,,0.00,Wunderground v.1.13,2013-01-13 02:00:00,
2013-01-12 21:05:00,69.5,65.1,30.08,SW,229,0.0,0.0,86,0.00,,,0.00,Wunderground v.1.13,2013-01-13 02:05:00,
2013-01-12 21:10:00,69.4,65.0,30.08,SW,229,0.0,0.0,86,0.00,,,0.00,Wunderground v.1.13,2013-01-13 02:10:00,
2013-01-12 21:15:00,69.4,65.4,30.08,SW,229,0.0,0.0,87,0.00,,,0.00,Wunderground v.1.13,2013-01-13 02:15:00,
2013-01-12 21:20:00,69.3,65.3,30.07,SW,229,0.0,0.0,87,0.00,,,0.00,Wunderground v.1.13,2013-01-13 02:20:00,
2013-01-12 21:25:00,69.3,65.3,30.07,SW,229,0.0,0.0,87,0.00,,,0.00,Wunderground v.1.13,2013-01-13 02:25:00,
2013-01-12 21:30:00,69.2,65.2,30.08,SW,229,0.0,0.0,87,0.00,,,0.00,Wunderground v.1.13,2013-01-13 02:30:00,
2013-01-12 21:35:00,69.1,65.1,30.07,SW,229,0.0,0.0,87,0.00,,,0.00,Wunderground v.1.13,2013-01-13 02:35:00,
2013-01-12 21:40:00,69.0,65.0,30.07,SW,229,0.0,0.0,87,0.00,,,0.00,Wunderground v.1.13,2013-01-13 02:40:00,
2013-01-12 21:45:00,69.0,65.3,30.07,SW,229,0.0,0.0,88,0.00,,,0.00,Wunderground v.1.13,2013-01-13 02:45:00,
2013-01-12 21:50:00,68.9,65.2,30.07,SW,229,0.0,0.0,88,0.00,,,0.00,Wunderground v.1.13,2013-01-13 02:50:00,
2013-01-12 21:56:00,68.9,65.2,30.07,SW,229,0.0,0.0,88,0.00,,,0.00,Wunderground v.1.13,2013-01-13 02:56:00,
2013-01-12 22:01:00,68.8,65.1,30.07,SW,229,0.0,0.0,88,0.00,,,0.00,Wunderground v.1.13,2013-01-13 03:01:00,
2013-01-12 22:06:00,68.6,64.9,30.07,SW,229,0.0,0.0,88,0.00,,,0.00,Wunderground v.1.13,2013-01-13 03:06:00,
2013-01-12 22:11:00,68.6,64.9,30.07,SW,229,0.0,0.0,88,0.00,,,0.00,Wunderground v.1.13,2013-01-13 03:11:00,
2013-01-12 22:16:00,68.6,65.2,30.08,SW,229,0.0,0.0,89,0.00,,,0.00,Wunderground v.1.13,2013-01-13 03:16:00,
2013-01-12 22:21:00,68.7,65.3,30.08,SW,229,0.0,0.0,89,0.00,,,0.00,Wunderground v.1.13,2013-01-13 03:21:00,
2013-01-12 22:26:00,68.8,65.4,30.08,SW,229,0.0,0.0,89,0.00,,,0.00,Wunderground v.1.13,2013-01-13 03:26:00,
2013-01-12 22:31:00,69.0,65.6,30.08,SW,229,0.0,0.0,89,0.00,,,0.00,Wunderground v.1.13,2013-01-13 03:31:00,
2013-01-12 22:36:00,69.0,65.6,30.09,SW,229,0.0,0.0,89,0.00,,,0.00,Wunderground v.1.13,2013-01-13 03:36:00,
2013-01-12 22:41:00,69.1,66.0,30.09,SW,229,0.0,0.0,90,0.00,,,0.00,Wunderground v.1.13,2013-01-13 03:41:00,
2013-01-12 22:46:00,69.2,66.1,30.09,SW,229,0.0,0.0,90,0.00,,,0.00,Wunderground v.1.13,2013-01-13 03:46:00,
2013-01-12 22:52:00,69.3,66.2,30.09,SW,229,0.0,0.0,90,0.00,,,0.00,Wunderground v.1.13,2013-01-13 03:52:00,
2013-01-12 22:57:00,69.5,66.4,30.08,SSW,201,0.0,2.0,90,0.00,,,0.00,Wunderground v.1.13,2013-01-13 03:57:00,
2013-01-12 23:02:00,69.6,66.5,30.08,South,180,0.0,5.0,90,0.00,,,0.00,Wunderground v.1.13,2013-01-13 04:02:00,
2013-01-12 23:07:00,69.7,66.3,30.08,South,176,0.0,3.0,89,0.00,,,0.00,Wunderground v.1.13,2013-01-13 04:07:00,
2013-01-12 23:12:00,69.9,65.9,30.08,South,176,0.0,1.0,87,0.00,,,0.00,Wunderground v.1.13,2013-01-13 04:12:00,
2013-01-12 23:17:00,70.2,65.5,30.08,South,169,3.0,3.0,85,0.00,,,0.00,Wunderground v.1.13,2013-01-13 04:17:00,
2013-01-12 23:23:00,70.6,65.2,30.08,SE,145,2.0,4.0,83,0.00,,,0.00,Wunderground v.1.13,2013-01-13 04:23:00,
2013-01-12 23:28:00,71.0,65.2,30.08,SSE,159,0.0,4.0,82,0.00,,,0.00,Wunderground v.1.13,2013-01-13 04:28:00,
2013-01-12 23:33:00,71.3,65.2,30.08,SSE,156,0.0,5.0,81,0.00,,,0.00,Wunderground v.1.13,2013-01-13 04:33:00,
2013-01-12 23:38:00,71.3,65.2,30.08,SSE,157,0.0,4.0,81,0.00,,,0.00,Wunderground v.1.13,2013-01-13 04:38:00,
2013-01-12 23:43:00,71.3,65.2,30.08,SSE,157,0.0,1.0,81,0.00,,,0.00,Wunderground v.1.13,2013-01-13 04:43:00,
2013-01-12 23:48:00,71.3,65.2,30.08,SSE,157,1.0,1.0,81,0.00,,,0.00,Wunderground v.1.13,2013-01-13 04:48:00,
2013-01-12 23:53:00,71.2,65.1,30.08,SSE,156,0.0,0.0,81,0.00,,,0.00,Wunderground v.1.13,2013-01-13 04:53:00,
2013-01-12 23:58:00,71.2,65.1,30.08,SSE,156,0.0,3.0,81,0.00,,,0.00,Wunderground v.1.13,2013-01-13 04:58:00,